Home > Time Zones > World Clock > Weather > Iran > Tehran > Past weeks

Flag for Iran Weather past 2 weeks in Tehran, Iran

Now
88 °F

Partly sunny.


Feels Like: 84 °F
Forecast: 69 / 87 °F
Wind: 9 mph from South

Location: Tehran-Mehrabad

Current Time: May 23, 2015 at 6:39:04 PM

Latest Report: May 23, 2015 at 6:00 PM


Visibility: N/A

Pressure: 29.89 "Hg

Humidity: 13%

Dew point: 30 °F

Location of TehranLocation

Historic Weather in Tehran — Graph

°F

Tehran temperature yesterday

Maximum temperature yesterday: 90 °F (at 4:00 PM)
Minimum temperature yesterday: 66 °F (at 3:30 AM)
Average temperature yesterday: 78 °F

Past Weeks' High & Low Weather Summary

 TemperatureHumidityPressure
High93 °F (May 20, 5:30 PM)59% (May 11, 4:30 AM)30.15 "Hg (May 11, 4:30 AM)
Low59 °F (May 16, 6:30 AM)7% (May 9, 2:30 PM)29.80 "Hg (May 8, 6:30 PM)
Average77 °F22%29.98 "Hg
* Reported May 8 4:30 PM — May 23 5:00 PM, Tehran, Weather by CustomWeather, © 2015

Note: Actual official high and low records may vary slightly from our data, if they occured in-between our weather recording intervals... More about our weather records

Advertising

Tehran weather history for previous 24 hours

 ConditionsComfort  
Time TempWeatherWind HumidityBarometerVisibility
5:00 PM
Sat, May 23
88 °FPartly sunny.7 mph13%29.89 "HgN/A
4:30 PM86 °FPartly sunny.5 mph14%29.92 "HgN/A
4:00 PM88 °FScattered clouds.9 mph13%29.92 "HgN/A
3:30 PM86 °FScattered clouds.16 mph14%29.95 "HgN/A
3:00 PM86 °FScattered clouds.12 mph14%29.95 "HgN/A
2:30 PM86 °FPassing clouds.14 mph13%29.95 "HgN/A
2:00 PM84 °FPassing clouds.9 mph18%29.98 "HgN/A
1:30 PM84 °FPassing clouds.9 mph18%29.98 "HgN/A
1:00 PM84 °FPassing clouds.7 mph18%30.01 "HgN/A
12:30 PM84 °FPassing clouds.14 mph15%30.01 "HgN/A
12:00 PM84 °FScattered clouds.14 mph14%30.01 "HgN/A
11:30 AM82 °FSunny.9 mph20%30.04 "Hg10 mi
11:00 AM81 °FSunny.9 mph24%30.04 "Hg10 mi
10:30 AM81 °FSunny.7 mph26%30.04 "Hg10 mi
10:00 AM81 °FPassing clouds.7 mph24%30.04 "HgN/A
9:30 AM79 °FPassing clouds.No wind26%30.04 "HgN/A
9:00 AM77 °FPassing clouds.5 mph28%30.04 "HgN/A
8:30 AM75 °FPassing clouds.5 mph29%30.04 "HgN/A
8:00 AM75 °FPassing clouds.9 mph31%30.04 "HgN/A
7:30 AM75 °FPassing clouds.12 mph27%30.01 "HgN/A
7:00 AM73 °FPassing clouds.5 mph33%30.01 "HgN/A
6:30 AM73 °FPassing clouds.5 mph33%30.01 "HgN/A
6:00 AM72 °FPassing clouds.5 mph38%30.01 "HgN/A
5:30 AM72 °FPassing clouds.5 mph38%30.01 "HgN/A
5:00 AM72 °FPassing clouds.6 mph38%30.01 "HgN/A
4:30 AM72 °FPassing clouds.No wind38%30.01 "HgN/A
4:00 AM72 °FPassing clouds.No wind38%30.01 "HgN/A
3:30 AM72 °FPassing clouds.No wind38%30.01 "HgN/A
3:00 AM75 °FPassing clouds.7 mph22%29.98 "HgN/A
2:30 AM75 °FPassing clouds.7 mph22%29.98 "HgN/A
1:30 AM79 °FPassing clouds.7 mph20%29.98 "HgN/A
1:00 AM79 °FPassing clouds.No wind20%29.98 "HgN/A
12:30 AM79 °FPassing clouds.No wind20%30.01 "HgN/A
12:00 AM79 °FPassing clouds.7 mph20%30.01 "Hg4 mi
11:30 PM
Fri, May 22
79 °FPassing clouds.7 mph20%30.01 "Hg4 mi
11:00 PM79 °FThunderstorms. Passing clouds.9 mph20%30.01 "Hg2 mi
10:30 PM79 °FThunderstorms. Passing clouds.35 mph21%30.04 "Hg1 mi
10:00 PM81 °FSandstorm.35 mph20%29.98 "Hg1 mi
9:30 PM82 °FPassing clouds.5 mph13%29.95 "HgN/A
9:00 PM84 °FPassing clouds.7 mph13%29.95 "HgN/A
8:30 PM84 °FPassing clouds.7 mph13%29.92 "HgN/A
8:00 PM86 °FPassing clouds.14 mph9%29.92 "HgN/A
7:30 PM88 °FPassing clouds.14 mph9%29.92 "HgN/A
7:00 PM88 °FPassing clouds.18 mph9%29.89 "HgN/A
6:30 PM90 °FPassing clouds.21 mph11%29.92 "HgN/A
6:00 PM90 °FPassing clouds.18 mph9%29.92 "HgN/A
Weather by CustomWeather, © 2015

See weather overviewHow to use our weather pages